星链-5971 (STARLINK-5971 )

导读 | 星芒AI

STARLINK-5971 是 SpaceX Starlink 项目中的一颗低轨通信卫星,属于第 17 批组网发射的“猎鹰 9 号”任务部署的卫星之一。该卫星运行在约 550 公里的近地轨道,旨在为全球提供高速互联网服务。作为 Starlink 卫星群的一部分,STARLINK-5971 采用先进推进和激光通信技术,支持低延迟、高带宽的网络连接,服务于偏远地区及常规网络覆盖不足的区域。该卫星于 2023 年发射,是 SpaceX 扩展全球宽带网络覆盖计划的重要组成部分。

基本信息
目录编号:
56917
目录名称:
STARLINK-5971
国际标识:
2023-083AT
轨道中心:
EARTH
卫星名称:
星链-5971
卫星全名:
星链-5971 (STARLINK-5971 )
卫星状态:
在轨 (已飞行876 天)
发射日期:
2023-06-12 UTC
国别 :
美国 (US)
星等 :
--
轨道信息
数据来源 国际轨道数据
星历时间: 2025-11-03T22:37:05+0800
16小时前
查看轨道信息
半长轴: 6937.245km
偏心率: 0.000191
轨道倾角: 43.007°
近地点辐角 263.953°
升交点赤经 33.938°
平近点角 96.109°
近地点: 557.784km
远地点: 560.436km
周期: 95.839分钟
每日圈数: 15.02527
详细信息
固有亮度:
5
最大亮度:
2.4
卫星平台:
Starlink v1.5
覆盖范围:
全球
运营商:
太空探索技术公司
运营商所在国:
美国
制造商(研发单位):
太空探索技术公司
制造商所在国:
美国
使用方式:
暂无
卫星简介
星链(Starlink)计划是由太空探索技术公司(SpaceX)提出的一个巨型低轨卫星互联网星座项目,计划在2019年至2024年间在太空搭建由约1.2万颗卫星组成的“星链”网络,其中1584颗将部署在地球上空550千米处的近地轨道,并从2020年开始工作。该卫星仍在工作。
2D轨道图
3D轨道图
轨道高度分析图
轨道倾角分析图
轨道综合分析图
查看轨道综合分析图